www.pogodaiklimat.ru

Погода и климат >> Архив погоды >> Россия >> Курганская область >> Далматово


ПОГОДА в Далматово

  • Прогноз погоды в Далматово
  • Монитор погоды в Далматово

АРХИВ ПОГОДЫ в Далматово

Время (UTC), дата Ветер
(напр.,м/с)
 
Видим.   Явления Облачность Т
(С)
Тd
(С)
f
(%)
Тe
(С)
Тes
(С)
Комфортность P
(гПа)
Po
(гПа)
Тmin
(С)
Tmax
(С)
R
(мм)
R24
(мм)
S
(см)
00 15.08 штиль 0 4000 м дымка 8/8 600 м
[Sc]
+9.7 +9.5 99 +9 +9 1012.8 1000.3
03 15.08 штиль 0 20 км 1/1 600 м
[Sc]
+15.7 +13.1 85 +15 +19 1013.6 1001.4 +9.1
06 15.08 СЗ 2 50 км 1/1 600 м
[Cu hum]
+23.2 +9.5 42 +25 +34 комфорт 1013.5 1001.6
09 15.08 штиль 0 20 км 5/5 600 м
[Cu med, cong]
+23.7 +9.1 39 +24 +32 комфорт 1013.4 1001.5
12 15.08 С 2 20 км 3/3 600 м
[Cu med, cong Ci fib]
+25.1 +8.8 36 +26 +29 жарко 1013.2 1001.4
15 15.08 штиль 0 20 км 8/0
[Cs]
+20.5 +12.6 60 +22 +22 комфорт 1014.0 1002.0 +25.8
18 15.08 штиль 0 4000 м дымка 6/0
[Cs]
+11.7 +10.9 95 +11 +11 1015.6 1003.2
21 15.08 штиль 0 4000 м дымка ясно +9.3 +8.9 97 +8 +8 1015.9 1003.4
00 16.08 штиль 0 4000 м дымка 3/0
[Ci fib]
+7.9 +7.7 99 +7 +7 1016.8 1004.2
03 16.08 З 1 10 км 10/4 600 м
[Sc Ac trans Ci fib]
+14.8 +12.5 86 +15 +16 1017.1 1004.8 +7.8
06 16.08 З 3 20 км 10/0
[Cs]
+22.9 +14.1 58 +26 +33 жарко 1016.6 1004.7
09 16.08 З 1 50 км 4/4 600 м
[Cu hum]
+24.9 +13.3 48 +27 +35 жарко 1015.8 1003.9
12 16.08 СЗ 2 50 км 3/0
[Ci fib]
+26.3 +14.3 48 +29 +33 жарко 1015.0 1003.3
15 16.08 штиль 0 20 км 8/0
[Cs]
+21.2 +15.3 69 +24 +24 комфорт 1015.7 1003.7 +26.6
18 16.08 штиль 0 4000 м дымка 6/0
[Cs]
+14.3 +13.5 95 +14 +14 1016.5 1004.2
21 16.08 штиль 0 4000 м дымка ясно +12.3 +11.9 97 +12 +12 1017.2 1004.8
00 17.08 штиль 0 4000 м дымка 3/0
[Ci fib]
+11.3 +11.1 99 +11 +11 1016.8 1004.4
03 17.08 штиль 0 10 км 10/0
[Cs]
+16.7 +15.1 90 +17 +19 1017.7 1005.5 +11.1
06 17.08 З 2 50 км 10/0 1000 м
[Cu hum Cs]
+25.7 +17.1 59 +30 +37 душно 1017.2 1005.4
09 17.08 С 1 50 км 10/0
[Cs]
+28.4 +15.2 45 +31 +41 душно 1016.8 1005.1
12 17.08 СЗ 1 50 км 10/0
[Cs]
+29.2 +16.2 45 +32 +36 душно 1016.5 1004.8
15 17.08 штиль 0 20 км 4/0
[Ci fib]
+22.6 +17.7 74 +28 +28 душно 1017.0 1005.1 +29.3
18 17.08 штиль 0 10 км 8/1 600 м
[Sc Cs]
+17.2 +16.2 94 +17 +17 1017.8 1005.6
21 17.08 В 1 10 км 10/0
[Cs]
+19.2 +17.9 92 +22 +22 комфорт 1018.0 1005.9
00 18.08 штиль 0 4000 м дымка 8/8 600 м
[Sc]
+17.5 +17.0 97 +17 +17 1018.3 1006.1
03 18.08 ЮВ 1 10 км 10/1 600 м
[Sc Cs]
+19.5 +17.4 88 +23 +25 комфорт 1018.1 1006.1 +16.4
06 18.08 З 2 50 км 10/3 600 м
[Sc Ac As]
+24.2 +17.7 67 +28 +30 душно 1018.5 1006.6
09 18.08 З 2 50 км 9/5 600 м
[Sc Ac trans]
+25.4 +14.7 52 +28 +31 жарко 1018.7 1006.9
12 18.08 С 2 20 км 8/3 600 м
[Cu hum Ac trans]
+26.1 +18.4 63 +31 +32 очень
душно
1019.8 1008.0
15 18.08 штиль 0 20 км 9/4 600 м
[Sc Ac trans]
+20.2 +16.8 81 +23 +23 комфорт 1021.5 1009.4 +27.7
18 18.08 штиль 0 10 км 8/3 600 м
[Sc Ac trans]
+16.8 +15.9 94 +17 +17 1022.9 1010.6
21 18.08 СВ 1 4000 м дымка {ливн. осадки} 10/10 600 м
[Sc]
+15.6 +15.1 97 +16 +16 1024.3 1011.9
00 19.08 штиль 0 4000 м дымка {ливн. осадки} 10/10 600 м
[Sc]
+15.0 +14.5 97 +15 +15 1025.6 1013.2
03 19.08 СВ 1 10 км 9/5 600 м
[Sc Ac trans]
+17.2 +15.2 88 +18 +19 1026.4 1014.1 +15.0 6
06 19.08 штиль 0 50 км 10/10 600 м
[Cu Sc]
+19.5 +14.2 71 +21 +21 комфорт 1027.0 1014.8
09 19.08 В 1 50 км 10/10 600 м
[Sc]
+22.0 +12.3 54 +24 +24 комфорт 1026.3 1014.2
12 19.08 штиль 0 50 км 10/10 600 м
[Sc]
+22.0 +13.7 59 +25 +25 комфорт 1026.1 1014.0
15 19.08 штиль 0 20 км 10/10 600 м
[Sc]
+18.6 +14.9 79 +19 +19 1026.3 1014.1 +22.7
18 19.08 штиль 0 10 км слаб. ливневой дождь 10/10 600 м
[Cb cap]
+15.9 +15.0 94 +16 +16 1026.1 1013.8
21 19.08 штиль 0 4000 м дымка {ливн. осадки} 10/10 600 м
[Sc]
+15.6 +15.2 97 +15 +15 1025.6 1013.3
00 20.08 штиль 0 4000 м дымка {ливн. осадки} 10/10 600 м
[Sc]
+15.2 +14.9 98 +15 +15 1025.5 1013.1
03 20.08 штиль 0 4000 м слаб. ливневой дождь 10/10 600 м
[Cb cap]
+15.7 +15.1 96 +15 +15 1024.5 1012.2 +15.1 2
06 20.08 штиль 0 10 км слаб. ливневой дождь 10/10 600 м
[Cb cap]
+16.7 +16.1 96 +17 +17 1023.2 1010.9
09 20.08 штиль 0 10 км слаб. ливневой дождь 10/10 600 м
[Cb cap]
+18.2 +17.2 94 +19 +19 1020.8 1008.7
12 20.08 В 2 20 км {ливн. осадки} 10/10 600 м
[Sc]
+19.6 +17.7 89 +23 +23 комфорт 1018.9 1006.9
15 20.08 В 2 10 км 10/10 600 м
[Sc]
+18.0 +16.7 92 +19 +19 1018.3 1006.2 +20.2 2
18 20.08 В 2 10 км 8/8 600 м
[Sc]
+17.2 +16.3 94 +18 +18 1017.4 1005.2
21 20.08 штиль 0 10 км 8/8 600 м
[Sc]
+16.4 +15.5 94 +16 +16 1017.5 1005.3
00 21.08 СВ 1 10 км 10/10 600 м
[Sc]
+15.0 +13.5 91 +15 +15 1017.5 1005.2
03 21.08 СВ 1 20 км 6/3 600 м
[Sc Ac trans]
+16.4 +12.4 77 +17 +19 1018.4 1006.1 +14.6
06 21.08 СВ 2 50 км 3/3 1000 м
[Cu hum]
+20.2 +11.2 56 +22 +29 комфорт 1018.7 1006.6
09 21.08 С 2 50 км 6/6 600 м
[Cu hum]
+20.7 +10.2 51 +23 +27 комфорт 1019.3 1007.3
12 21.08 С 2 50 км 9/9 600 м
[Cu med, cong]
+18.4 +11.6 65 +19 +20 1020.4 1008.2
15 21.08 штиль 0 20 км 4/4 600 м
[Sc]
+14.6 +12.0 84 +14 +14 1021.0 1008.7 +21.6
18 21.08 штиль 0 4000 м дымка ясно +11.4 +10.9 97 +11 +11 1021.7 1009.2
21 21.08 штиль 0 4000 м дымка 10/10 600 м
[Sc]
+13.5 +11.9 90 +13 +13 1020.7 1008.3

 

Местоположение метеостанции Далматово (Курганская область, Россия): широта 56.27 долгота 62.93 высота над уровнем моря 103 м.

В архиве по умолчанию представлена погода в Далматово за последнюю неделю. Архивные данные за месяц целиком и за предыдущие месяцы, начиная с января 2011 года, Вы можете получить, выбрав интересующий диапазон дат из раскрывающегося списка и нажав кнопку "Ввод!".


*Определитесь, кто Вы:
робот инопланетянин человек

Внимание! Время в таблицах - всемирное. Для получения местного времени необходимо прибавить поправку, которая равна 5 ч.

Смотрите также архив погоды в соседних городах и на ближайших метеорологических станциях:

Погода в Шадринске (Курганская область, Россия) (50 км)
Погода в Камышлове (Свердловская область, Россия) (66 км)
Погода в Каменск-Уральском (Свердловская область, Россия) (68 км)
Погода в Бутке (Свердловская область, Россия) (72 км)
Погода в Бродокалмаке (Челябинская область, Россия) (94 км)
Погода в Шатрово (Курганская область, Россия) (109 км)
Погода в Шумихе (Курганская область, Россия) (118 км)
Погода в Верхнем Дуброво (Свердловская область, Россия) (125 км)
Погода в Сысерти (Свердловская область, Россия) (132 км)
Погода в Артемовском (Свердловская область, Россия) (137 км)

Пояснения к столбцам:

Ветер - указаны скорость ветра в м/с - средняя за 10 мин, порывы в срок и между сроками (в фигурных скобках) и направление, откуда дует ветер: С - северный, СВ - северо-восточный, В - восточный, ЮВ - юго-восточный, Ю - южный, ЮЗ - юго-западный, З - западный, СЗ - северо-западный.
Видимость - горизонтальная дальность видимости в метрах или километрах. При видимости от 1 до 10 км при отсутствии осадков обычно наблюдается дымка, при ухудшении видимости до 1 км и менее - туман. В сухую погоду видимость может ухудшаться дымом, пылью или мглою.
Явления - указаны атмосферные явления, наблюдавшиеся в срок или в последний час перед сроком; фигурными скобками обозначены явления, наблюдавшиеся между сроками (за 1-3 часа до срока); квадратными скобками обозначены град или гололедные отложения с указанием их диаметра в мм.
Облачность - указаны через наклонную черту общая и нижняя облачность в баллах и высота нижней границы облаков в метрах; квадратными скобками обозначены формы облаков: Ci - перистые, Cs - перисто-слоистые, Cc - перисто-кучевые, Ac - высококучевые, As - высокослоистые, Sc - слоисто-кучевые, Ns - слоисто-дождевые, Cu - кучевые, Cb - кучево-дождевые. Подробнее классификацию облаков см. в Атласе облаков (PDF).
T - Температура воздуха - температура, измеренная на высоте 2 м над землей.
Td - Температура точки росы - температура, при понижении до которой содержащийся в воздухе водяной пар достигнет насыщения.
f - Относительная влажность воздуха - влажноcть воздуха, измеренная на высоте 2 м над землей.
Te - Эффективная температура - температура, которую ощущает одетый по сезону человек в тени. Характеристика душности погоды. При расчете учитывается влияние влажности воздуха и скорости ветра на теплоощущения человека.
Tes - Эффективная температура на солнце - температура, которую ощущает человек, с поправкой на солнечный нагрев. Характеристика знойности погоды. Зависит от высоты солнца над горизонтом, облачности и скорости ветра. Ночью, в пасмурную погоду, а также при ветре 12 м/с и более поправка равна нулю.
P - Атмосферное давление - приведенное к уровню моря атмосферное давление.
Po - Атмосферное давление - измеренное на уровне метеостанции атмосферное давление.
Tmin - Минимальная температура - минимум температуры воздуха на высоте 2 м над землей.
Tmax - Максимальная температура - максимум температуры воздуха на высоте 2 м над землей.
R - Количество осадков - Количество выпавших осадков за период времени, мм. При наведении курсора мыши на число - период времени, за который выпало указанное количество осадков.
R24 - Количество осадков - Количество выпавших осадков за 24 часа, мм.
S - Снежный покров - Высота снежного покрова, см. При наведении курсора мыши на число - состояние снежного покрова и степень покрытия местности в баллах.